Погода в Сарашах

Россия / Пермский край     56°46′37″N   55°45′12″E
темп.,
°C
ветер,
м/с
пор.,
м/с
влажн.,
%
обл.,
%
осадки,
мм/ч
давл.,
гПа
погр.,
м
24 января, пн
пн2423:00−9ююз1390100 0.0 103686
02:00−9ю1191100 0.0 103621
05:00−9ю2293100 0.0 103647
08:00−9ю2695100 0.0 1036175
11:00−9ююз2591100 0.0 1036208
14:00−8зюз2492100 0.1 1036270
17:00−10ююз229799 0.3 103613
20:00−15юз22100100 0.0 103610
25 января, вт
вт2523:00−17ююз22100100 0.1 103610
02:00−18ююз22100100 0.0 103510
05:00−16ююз22100100 0.1 103439
08:00−19ююз22100100 0.0 103314
11:00−15ююз239894 0.1 103280
14:00−11ююз35859 0.0 1030210
17:00−13ююз33945 0.0 103051
20:00−18ю23986 0.0 103027
26 января, ср
ср2623:00−19ю349828 0.0 102945
02:00−20ю239963 0.0 102839
05:00−21ююв2410055 0.0 102842
08:00−21ююв2210075 0.0 102731
11:00−16ююв379699 0.0 1025135
14:00−11ю489195 0.0 1024243
17:00−12ююв3596100 0.0 102488
20:00−16юв22100100 0.0 102333
27 января, чт
чт2723:00−13юв2496100 0.0 102183
02:00−8ю4119498 0.4 1019463
05:00−9ю4995100 0.8 1018408
08:00−9ююз499486 0.4 1019344
11:00−9ююз499489 0.6 1020415
14:00−8юз4791100 0.1 1020432
17:00−9ююз4795100 0.1 1021276
20:00−13ююв2298100 0.1 102141
28 января, пт
пт2823:00−14ююв2299100 0.1 102121
02:00−13юв1197100 0.0 102011
05:00−13юв1197100 0.0 102014
08:00−12вюв1197100 0.0 101910
11:00−10ююв1194100 0.0 101856
14:00−6ю129197 0.0 1017230
17:00−6юз009798 0.2 101710
20:00−10ссв009884 0.1 101710